Location: Gwatt
(46.7204°N, 7.6223°E)
Time: 00:55:11
(UTC+00:00)

Envisat - Pass Details

Date: 26 November 2020
Orbit: 764 x 766 km, 98.1° (Epoch: 19 January)

Event Time Altitude Azimuth Distance (km) Brightness Sun altitude
Rises 18:01:55 0° 218° (SW) 3,222 6.9 -22.8°
Reaches altitude 10° 18:05:32 10° 245° (WSW) 2,303 6.4 -23.4°
Maximum altitude 18:07:55 13° 273° (W) 2,087 6.2 -23.8°
Drops below altitude 10° 18:10:18 10° 301° (WNW) 2,311 6.2 -24.2°
Sets 18:13:57 0° 328° (NNW) 3,245 6.6 -24.8°
